STARLINK-32049, 60199

Orbit data source: Space-Track

STARLINK-32049, 60199 is a payload satellite owned by SpaceX/Seattle (US) in LEO that was launched on Wed, 03 Jul 2024 UTC via an FALCON 9 launch vehicle from the Air Force Eastern Test Range (AFETR). Payload-class satellites include a variety of spacecraft equipped with specific instruments for various scientific and technological missions. These include communications satellites like Starlink; space stations such as the ISS; scientific satellites like the Hubble; Earth observation satellites from companies like Planet Labs, Umbra, and HawkEye 360; GPS; miniature CubeSats for education and research; and military/defense satellites.

Loading next visibility...
Identifier
60199, 2024-124S
Orbit
LEO
Country
Flag of USUS
Related business
Manufacturer
SpaceX/Seattle
Mission
Operational Commercial Communications
Bus & Motor
STARLINK V2M, Unknown motor
Mass
730 kg wet, ~700 kg dry
Launch date (UTC)
2024-07-03 (2 years ago)
Launch vehicle
FALCON 9
Launch site
Air Force Eastern Test Range (AFETR)
Object type
Payload
Rocket body
Debris
Shape & HBR
Box + 2 Pan, 17.7 m
Radar Cross Section
33.884 m², Large (>1 m²)

Expand to show TLE details & history
Last TLE update: 6 hours ago

TLE from 6 hours ago
0 STARLINK-32049
1 60199U 24124S   26126.91668981 -.00011914  00000-0 -34193-3 0  9994
2 60199  53.1591  52.1278 0000925 104.0514  98.1642 15.34408501  5766
Epoch: 2026-05-06T22:00Z
TLE epoch observation values (Epoch: 2026-05-06T22:00:01.999Z)
Latitude
-17.79517°
Longitude
51.18518°
Altitude
467.628 km
Speed
7.633 km/s
True Right ascension
16h 23m 51s
True Declination
-17° 41' 28"
Sunlit
Object was in full shadow at epoch
Visualization orbit readout
Latitude
Unknown
Longitude
Unknown
Altitude
Unknown
Speed
Unknown
Apparent Right ascension
Unknown
Apparent Declination
Unknown
Sunlit
N/A
Visualization observer readout
Local Sidereal Time
12:21:40
Azimuth
Unknown
Elevation
Unknown
Doppler factor
Unknown
Orbital elements
Apogee altitude
463.568 km
Perigee altitude
462.302 km
Semi-major axis
6,841.072 km
Eccentricity
0.00009
Inclination
53.1591°
RAAN
52.1278°
Arg. of periapsis
104.0514°
True anomaly
98.17469°
Mean anomaly
98.1642°
Eccentric anomaly
98.16945°
Mean motion
3.83581 °/min
Orbital period
93.85 mins
BSTAR
-0.00034193
Loading maneuver chart data...
Computing Atmospheric mass density...
Loading historical data...
Loading historical data...
Loading historical data...
Loading historical data...
Loading historical data...
Loading historical data...
Loading historical data...

Documentation

Showing up to 5 results
|